Weather History for Lytton, BC

Change the Weather History Date:

Tuesday, August 6, 2013

  Actual Average Record
Temperature  
Mean Temperature 80 °F -  
Max Temperature 95 °F 84 °F 100 °F (2008)
Min Temperature 65 °F 59 °F 51 °F (2002)
Cooling Degree Days 15    
Growing Degree Days 30 (Base 50)    
Moisture  
Dew Point 47 °F    
Average Humidity 31    
Maximum Humidity 46    
Minimum Humidity 12    
Precipitation  
Precipitation 0.00 in - - ()
Sea Level Pressure  
Sea Level Pressure 29.87 in    
Wind  
Wind Speed 15 mph ()    
Max Wind Speed 26 mph    
Max Gust Speed 36 mph    
Visibility 9.0 miles    
Events      
Averages and records for this station are not official NWS values.
T = Trace of Precipitation, MM = Missing Value Source: Averaged Metar Reports

Daily Weather History Graph

Daily Weather History Graph

Search for Another Location

Airport:

Trip Planner

Search our weather history database for the weather conditions in past years. The results will help you decide how hot, cold, wet, or windy it might be!

Date:

Astronomy

Aug. 06, 2013 Rise Set
Actual Time 5:42 AM PDT 8:40 PM PDT
Civil Twilight 5:04 AM PDT 9:18 PM PDT
Nautical Twilight 4:15 AM PDT 10:07 PM PDT
Astronomical Twilight 3:14 AM PDT 11:07 PM PDT
Moon 5:45 AM PDT (8/6) 8:08 PM PDT (8/6)
Length of Visible Light 16h 13m
Length of Day
14h 58m
Waning Crescent, 0% of the Moon is Illuminated
Aug 6
Waning Crescent
Aug 6
New
Aug 14
First Quarter
Aug 20
Full
Aug 28
Last Quarter

Hourly Weather History & Observations

Time (PDT) Temp. Dew Point Humidity Pressure Visibility Wind Dir Wind Speed Gust Speed Precip Events Conditions
12:00 AM 77.0 °F 46.4 °F 34% 29.87 in 9.0 mi South 23.0 mph 29.9 mph N/A   Clear
1:00 AM 75.2 °F 46.4 °F 36% 29.88 in 9.0 mi South 23.0 mph 35.7 mph N/A   Clear
2:00 AM 73 °F 46 °F 27% 29.89 in 9 mi South 26.5 mph - -  
2:00 AM 73.4 °F 46.4 °F 38% 29.89 in 9.0 mi South 25.3 mph 35.7 mph N/A   Clear
3:00 AM 71.6 °F 46.4 °F 41% 29.91 in 9.0 mi South 23.0 mph 29.9 mph N/A   Clear
4:00 AM 69.8 °F 46.4 °F 43% 29.92 in 9.0 mi South 15.0 mph 25.3 mph N/A   Clear
5:00 AM 68 °F 45 °F 32% 29.93 in 9 mi South 9.2 mph - -  
5:00 AM 68.0 °F 44.6 °F 43% 29.93 in 9.0 mi SSE 11.5 mph - N/A   Clear
6:00 AM 66.2 °F 44.6 °F 46% 29.95 in 9.0 mi SSE 6.9 mph - N/A   Clear
7:00 AM 66.2 °F 44.6 °F 46% 29.96 in 9.0 mi SSW 2.3 mph - N/A   Clear
8:00 AM 66 °F 44 °F 34% 29.97 in 9 mi SSE 8.1 mph - -  
8:00 AM 66.2 °F 44.6 °F 46% 29.97 in 9.0 mi SSE 8.1 mph - N/A   Partly Cloudy
9:00 AM 69.8 °F 46.4 °F 43% 29.96 in 9.0 mi Calm Calm - N/A   Clear
10:00 AM 75.2 °F 46.4 °F 36% 29.95 in 9.0 mi SE 4.6 mph - N/A   Clear
11:00 AM 80 °F 47 °F 21% 29.92 in 9 mi South 10.4 mph - -  
11:00 AM 80.6 °F 46.4 °F 30% 29.92 in 9.0 mi SSE 13.8 mph 19.6 mph N/A   Partly Cloudy
12:00 PM 84.2 °F 48.2 °F 29% 29.88 in 9.0 mi South 23.0 mph 28.8 mph N/A   Clear
1:00 PM 87.8 °F 50.0 °F 27% 29.84 in 9.0 mi South 19.6 mph 31.1 mph N/A   Clear
2:00 PM 91 °F 51 °F 16% 29.81 in 9 mi South 17.3 mph - -  
2:00 PM 91.4 °F 50.0 °F 24% 29.81 in 9.0 mi South 18.4 mph 27.6 mph N/A   Clear
3:00 PM 93.2 °F 48.2 °F 21% 29.79 in 9.0 mi South 18.4 mph 31.1 mph N/A   Clear
4:00 PM 95.0 °F 46.4 °F 19% 29.77 in 9.0 mi South 18.4 mph 33.4 mph N/A   Clear
5:00 PM 94 °F 47 °F 12% 29.76 in 9 mi South 20.7 mph - -  
5:00 PM 93.2 °F 46.4 °F 20% 29.76 in 9.0 mi South 17.3 mph 35.7 mph N/A   Clear
6:00 PM 93.2 °F 48.2 °F 21% 29.77 in 9.0 mi South 18.4 mph 29.9 mph N/A   Clear
7:00 PM 87.8 °F 48.2 °F 25% 29.77 in 9.0 mi SSW 12.7 mph 21.9 mph N/A   Clear
8:00 PM 86.0 °F 48.2 °F 27% 29.78 in 9.0 mi SSW 12.7 mph 23.0 mph N/A   Clear
9:00 PM 84.2 °F 48.2 °F 29% 29.82 in 9.0 mi SSW 13.8 mph 28.8 mph N/A   Clear
10:00 PM 82.4 °F 46.4 °F 28% 29.84 in 9.0 mi SSW 19.6 mph 25.3 mph N/A   Clear
11:00 PM 79 °F 46 °F 21% 29.86 in 9 mi South 20.7 mph - -  
11:00 PM 78.8 °F 46.4 °F 32% 29.86 in 9.0 mi South 19.6 mph 31.1 mph N/A   Clear